RYR187 LICA-EPKK

Flight info

Callsign RYR187
Flight time N/A
Altitude 38000
Route ARBUM DCT EVINO DCT KUTID DCT VEGAN DCT XOLTA/N0457F370 DCT VEBAL DCT MOCON/N0426F230 M985 MEBAN
Aircraft B38M/M-SDE1FGHILORVWXY/HB1

Departure

Time 2026-04-23 14:16
Airport Lamezia Terme Sant'Eufemia International Airport (LICA)

Arrival

Time N/A
Airport Kraków John Paul II International Airport (EPKK)
Time Latitude Longitude Altitude Speed Heading
2026-04-23 14:03 38.90816 16.24985 34 ft 0 kts 49°
2026-04-23 14:11 38.90817 16.24986 34 ft 1 kts 49°
2026-04-23 14:11 38.90819 16.24998 34 ft 1 kts 90°
2026-04-23 14:11 38.90812 16.25009 34 ft 2 kts 143°
2026-04-23 14:12 38.90785 16.25013 34 ft 0 kts 180°
2026-04-23 14:12 38.90750 16.25025 35 ft 10 kts 144°
2026-04-23 14:12 38.90732 16.25118 35 ft 15 kts 97°
2026-04-23 14:12 38.90701 16.25268 35 ft 20 kts 126°
2026-04-23 14:13 38.90623 16.25412 36 ft 19 kts 91°
2026-04-23 14:13 38.90598 16.25629 35 ft 30 kts 97°
2026-04-23 14:13 38.90565 16.25925 36 ft 32 kts 98°
2026-04-23 14:13 38.90527 16.26180 35 ft 17 kts 128°
2026-04-23 14:14 38.90386 16.26237 35 ft 21 kts 191°
2026-04-23 14:14 38.90322 16.26105 34 ft 20 kts 279°
2026-04-23 14:14 38.90353 16.25841 34 ft 54 kts 277°
2026-04-23 14:14 38.90446 16.25037 38 ft 125 kts 278°
2026-04-23 14:15 38.90588 16.23835 114 ft 127 kts 278°
2026-04-23 14:15 38.90733 16.22782 31 ft 116 kts 276°
2026-04-23 14:15 38.90750 16.22468 27 ft 0 kts 115°
2026-04-23 14:15 38.90828 16.23137 382 ft 0 kts 115°
2026-04-23 14:16 38.91874 16.22530 718 ft 1264 kts 115°
2026-04-23 14:16 38.91754 16.23706 993 ft 242 kts 131°